WX5HOT Weather Reports


time (UTC)temp
F
wind
direction
speed
knots
gust
knots
rain 1hr
in
rain 24hr
in
rain mn
in
humidity
%
barometer
mb
20260510011443 71 69 0.9 1.7 0.00 0.00 0.00 69 1062.0
20260510010939 72 173 1.7 1.7 0.00 0.00 0.00 69 1062.1
20260510010437 72 169 1.7 1.7 0.00 0.00 0.00 68 1062.1
20260510005934 72 192 2.6 5.2 0.00 0.00 0.00 68 1061.7
20260510005430 72 168 0.9 0.9 0.00 0.00 0.00 67 1061.7
20260510004927 73 178 1.7 1.7 0.00 0.00 0.00 67 1061.8
20260510004424 73 174 0.9 0.9 0.00 0.00 0.00 66 1061.8
20260510003922 73 165 0.9 0.9 0.00 0.00 0.00 65 1061.7
20260510003419 74 154 0.9 0.9 0.00 0.00 0.00 64 1061.6
20260510002918 74 168 0.9 1.7 0.00 0.00 0.00 63 1061.7
20260510002416 74 174 0.9 0.9 0.00 0.00 0.00 63 1061.7
20260510001912 75 175 1.7 1.7 0.00 0.00 0.00 63 1061.7
20260510001410 75 167 0.9 0.9 0.00 0.00 0.00 63 1061.6
20260510000906 75 68 0.9 1.7 0.00 0.00 0.00 63 1061.6
20260510000404 75 199 1.7 1.7 0.00 0.00 0.00 62 1061.6
20260509235859 76 200 1.7 2.6 0.00 0.00 0.00 61 1061.4
20260509235356 76 172 1.7 2.6 0.00 0.00 0.00 60 1061.5
20260509234852 76 190 1.7 2.6 0.00 0.00 0.00 58 1061.6
20260509234350 76 182 0.9 0.9 0.00 0.00 0.00 55 1061.3
20260509233848 77 158 0.9 0.9 0.00 0.00 0.00 54 1061.4
20260509233345 77 179 0.9 0.9 0.00 0.00 0.00 55 1061.2
20260509232840 76 177 0.0 0.9 0.00 0.00 0.00 56 1061.4
20260509232339 75 141 2.6 2.6 0.00 0.00 0.00 55 1061.4
20260509231834 75 131 1.7 2.6 0.00 0.00 0.00 56 1061.3
20260509231331 75 107 1.7 1.7 0.00 0.00 0.00 55 1061.2
20260509230829 75 89 1.7 2.6 0.00 0.00 0.00 53 1061.3
20260509230326 75 136 2.6 2.6 0.00 0.00 0.00 54 1061.4
20260509225821 75 94 1.7 1.7 0.00 0.00 0.00 54 1061.3
20260509225318 75 69 1.7 1.7 0.00 0.00 0.00 55 1061.3
20260509224814 76 63 1.7 3.5 0.00 0.00 0.00 55 1061.4
20260509224310 77 188 1.7 1.7 0.00 0.00 0.00 54 1061.2
20260509223807 77 127 0.9 0.9 0.00 0.00 0.00 56 1061.4
20260509223304 78 147 0.0 0.0 0.00 0.00 0.00 53 1061.3
20260509222801 80 151 2.6 1.7 0.00 0.00 0.00 48 1061.2
20260509222256 80 196 0.0 0.0 0.00 0.00 0.00 50 1061.2
20260509221753 81 178 0.9 0.9 0.00 0.00 0.00 47 1061.4
20260509221249 81 208 0.0 0.0 0.00 0.00 0.00 49 1061.2
20260509220745 81 184 0.0 0.0 0.00 0.00 0.00 48 1061.2
20260509220241 80 177 0.9 0.9 0.00 0.00 0.00 50 1061.1
20260509215736 80 203 1.7 1.7 0.00 0.00 0.00 50 1061.0
20260509215234 79 187 0.9 1.7 0.00 0.00 0.00 48 1061.3
20260509214731 80 143 0.9 1.7 0.00 0.00 0.00 49 1061.1
20260509214228 80 193 0.9 0.9 0.00 0.00 0.00 55 1061.3
20260509213725 77 207 1.7 1.7 0.00 0.00 0.00 54 1061.3
20260509213220 76 66 2.6 2.6 0.00 0.00 0.00 54 1061.2
20260509212718 75 34 1.7 2.6 0.00 0.00 0.00 56 1061.4
20260509212215 76 45 1.7 3.5 0.00 0.00 0.00 56 1061.4
20260509211711 77 125 0.0 0.9 0.00 0.00 0.00 55 1061.3
20260509211208 79 133 1.7 2.6 0.00 0.00 0.00 52 1061.3
20260509210704 77 189 0.0 0.0 0.00 0.00 0.00 53 1061.4
20260509210202 78 200 0.0 0.9 0.00 0.00 0.00 57 1061.3
20260509205701 80 100 1.7 3.5 0.00 0.00 0.00 51 1061.4
20260509205201 80 183 0.9 0.9 0.00 0.00 0.00 50 1061.5
20260509204657 80 178 0.9 1.7 0.00 0.00 0.00 52 1061.5
20260509204153 79 170 0.9 0.9 0.00 0.00 0.00 50 1061.6
20260509203649 80 59 3.5 3.5 0.00 0.00 0.00 48 1061.6
20260509203148 79 214 2.6 2.6 0.00 0.00 0.00 52 1061.5
20260509202643 78 169 0.9 0.9 0.00 0.00 0.00 56 1061.8
20260509202138 77 180 0.0 0.0 0.00 0.00 0.00 56 1061.8
20260509201628 78 174 0.9 0.9 0.00 0.00 0.00 54 1061.8
20260509201126 79 213 0.9 0.9 0.00 0.00 0.00 51 1062.2
20260509200621 78 218 0.9 0.9 0.00 0.00 0.00 52 1062.1
20260509200117 77 141 1.7 1.7 0.00 0.00 0.00 52 1062.1
20260509195612 76 160 0.0 0.0 0.00 0.00 0.00 55 1062.1
20260509195107 76 167 0.0 0.0 0.00 0.00 0.00 53 1062.2
20260509194606 78 171 0.0 0.0 0.00 0.00 0.00 53 1062.1
20260509194105 79 212 0.0 0.0 0.00 0.00 0.00 51 1062.1
20260509193600 79 185 0.0 0.9 0.00 0.00 0.00 52 1062.3
20260509193056 79 172 0.0 0.0 0.00 0.00 0.00 53 1062.3
20260509192553 79 209 0.9 0.9 0.00 0.00 0.00 50 1062.2
20260509192049 79 94 0.9 0.9 0.00 0.00 0.00 52 1062.5
20260509191548 79 211 0.0 0.0 0.00 0.00 0.00 49 1062.6
20260509191044 77 199 0.0 0.9 0.00 0.00 0.00 52 1062.3
20260509190541 76 123 0.9 0.9 0.00 0.00 0.00 54 1062.3
20260509190040 76 179 0.9 1.7 0.00 0.00 0.00 56 1062.3
20260509185537 77 186 0.0 0.0 0.00 0.00 0.00 53 1062.4
20260509185033 78 112 1.7 1.7 0.00 0.00 0.00 53 1062.3
20260509184531 76 217 1.7 1.7 0.00 0.00 0.00 57 1062.3
20260509184027 76 213 1.7 1.7 0.00 0.00 0.00 60 1062.5
20260509183522 76 235 1.7 1.7 0.00 0.00 0.00 55 1062.5
20260509183019 77 255 2.6 3.5 0.00 0.00 0.00 58 1062.4
20260509182515 76 223 1.7 1.7 0.00 0.00 0.00 55 1062.6
20260509182012 75 203 0.9 0.9 0.00 0.00 0.00 61 1062.4
20260509181510 75 97 2.6 2.6 0.00 0.00 0.00 59 1062.6
20260509181008 75 120 1.7 2.6 0.00 0.00 0.00 61 1062.7
20260509180503 76 73 2.6 2.6 0.00 0.00 0.00 56 1062.7
20260509180001 75 208 1.7 1.7 0.00 0.00 0.00 61 1062.7
20260509175456 74 306 1.7 1.7 0.00 0.00 0.00 60 1062.8
20260509174953 74 200 1.7 2.6 0.00 0.00 0.00 60 1062.7
20260509174449 74 140 0.0 0.9 0.00 0.00 0.00 64 1062.8
20260509173944 75 196 0.9 0.9 0.00 0.00 0.00 60 1063.0
20260509173444 74 163 0.9 0.9 0.00 0.00 0.00 66 1062.8
20260509172941 74 88 0.0 0.0 0.00 0.00 0.00 62 1062.8
20260509172438 74 248 2.6 2.6 0.00 0.00 0.00 61 1062.8
20260509171934 74 307 1.7 1.7 0.00 0.00 0.00 61 1062.9
20260509171430 75 244 1.7 0.9 0.00 0.00 0.00 63 1062.9
20260509170927 74 200 0.9 0.9 0.00 0.00 0.00 67 1062.9
20260509170422 74 211 0.9 0.9 0.00 0.00 0.00 64 1063.0
20260509165919 73 302 1.7 1.7 0.00 0.00 0.00 65 1062.8
20260509165412 74 19 2.6 2.6 0.00 0.00 0.00 63 1062.8
20260509164908 73 232 0.9 1.7 0.00 0.00 0.00 66 1062.8
20260509164405 73 207 1.7 0.9 0.00 0.00 0.00 69 1062.7
20260509163901 73 198 0.9 0.9 0.00 0.00 0.00 69 1062.6
20260509163358 72 181 0.9 0.9 0.00 0.00 0.00 69 1062.8
20260509162857 72 204 3.5 3.5 0.00 0.00 0.00 69 1062.8
20260509162355 72 320 2.6 3.5 0.00 0.00 0.00 69 1062.8
20260509161851 71 176 1.7 1.7 0.00 0.00 0.00 70 1062.8
20260509161348 71 229 1.7 1.7 0.00 0.00 0.00 69 1062.6
20260509160844 71 319 1.7 3.5 0.00 0.00 0.00 70 1062.8
20260509160340 71 215 0.9 1.7 0.00 0.00 0.00 71 1062.9
20260509155835 72 169 1.7 1.7 0.00 0.00 0.00 70 1062.5
20260509155332 72 284 2.6 2.6 0.00 0.00 0.00 70 1062.7
20260509154828 72 206 0.0 0.0 0.00 0.00 0.00 71 1062.7
20260509154324 72 200 0.9 0.9 0.00 0.00 0.00 72 1062.6
20260509153821 72 67 2.6 2.6 0.00 0.00 0.00 70 1062.6
20260509153318 72 39 1.7 1.7 0.00 0.00 0.00 69 1062.6
20260509152815 72 175 1.7 1.7 0.00 0.00 0.00 70 1062.7
20260509152311 72 230 1.7 1.7 0.00 0.00 0.00 70 1062.7
20260509151809 71 127 0.9 0.9 0.00 0.00 0.00 71 1062.7
20260509151304 71 236 1.7 1.7 0.00 0.00 0.00 69 1062.7
20260509150803 71 247 1.7 1.7 0.00 0.00 0.00 70 1062.5
20260509150301 71 210 0.9 0.9 0.00 0.00 0.00 74 1062.7
20260509145757 71 196 0.9 0.9 0.00 0.00 0.00 70 1062.5
20260509145257 70 75 1.7 1.7 0.00 0.00 0.00 72 1062.6
20260509144754 70 35 0.9 0.9 0.00 0.00 0.00 72 1062.7
20260509144251 69 226 0.9 0.9 0.00 0.00 0.00 73 1062.7
20260509143748 69 231 1.7 0.9 0.00 0.00 0.00 74 1062.8
20260509143246 69 228 1.7 1.7 0.00 0.00 0.00 74 1062.8
20260509142741 68 233 1.7 1.7 0.00 0.00 0.00 76 1062.8
20260509142238 68 234 1.7 1.7 0.00 0.00 0.00 76 1062.9
20260509141733 68 225 2.6 2.6 0.00 0.00 0.00 75 1062.7
20260509141231 68 233 1.7 1.7 0.00 0.00 0.00 76 1062.8
20260509140727 67 266 4.3 5.2 0.00 0.00 0.00 76 1062.8
20260509140225 67 262 4.3 5.2 0.00 0.00 0.00 76 1062.8
20260509135722 67 274 3.5 3.5 0.00 0.00 0.00 77 1062.8
20260509135220 67 228 4.3 3.5 0.00 0.00 0.00 76 1062.9
20260509134716 67 252 5.2 5.2 0.00 0.00 0.00 76 1062.9
20260509134214 66 221 4.3 5.2 0.00 0.00 0.00 77 1062.9
20260509133711 66 233 2.6 2.6 0.00 0.00 0.00 77 1062.8
20260509133208 66 235 4.3 5.2 0.00 0.00 0.00 77 1062.8
20260509132707 66 230 3.5 3.5 0.00 0.00 0.00 77 1062.8
20260509132205 66 203 3.5 2.6 0.00 0.00 0.00 77 1063.0
20260509131700 65 206 4.3 6.1 0.00 0.00 0.00 77 1062.8
20260509131157 65 222 3.5 3.5 0.00 0.00 0.00 77 1062.7
20260509130653 65 222 3.5 3.5 0.00 0.00 0.00 77 1062.5
20260509130149 64 214 5.2 6.1 0.00 0.00 0.00 78 1062.6
20260509125646 65 203 3.5 2.6 0.00 0.00 0.00 77 1062.6
20260509125143 65 207 5.2 6.1 0.00 0.00 0.00 77 1062.6
20260509124640 65 213 5.2 6.1 0.00 0.00 0.00 77 1062.5
20260509124137 65 208 5.2 7.0 0.00 0.00 0.00 76 1062.1
20260509123634 65 213 4.3 5.2 0.00 0.00 0.00 76 1062.3
20260509123131 65 221 5.2 6.1 0.00 0.00 0.00 76 1062.1
20260509122627 65 225 4.3 5.2 0.00 0.00 0.00 76 1062.1
20260509122124 65 211 3.5 3.5 0.00 0.00 0.00 76 1061.8
20260509121620 65 195 4.3 7.8 0.00 0.00 0.00 76 1062.0
20260509121119 65 219 5.2 6.1 0.00 0.00 0.00 76 1061.6
20260509120616 65 224 5.2 7.0 0.00 0.00 0.00 76 1062.0
20260509120114 65 217 7.0 7.8 0.00 0.00 0.00 77 1061.6
20260509115611 64 220 5.2 7.0 0.00 0.00 0.00 77 1061.6
20260509115109 64 199 6.1 7.8 0.00 0.00 0.00 78 1061.7
20260509114607 64 213 6.1 8.7 0.00 0.00 0.00 78 1061.7
20260509114106 64 214 4.3 5.2 0.00 0.00 0.00 78 1061.5
20260509113603 64 209 7.8 8.7 0.00 0.00 0.00 77 1061.5
20260509113101 64 205 7.0 7.8 0.00 0.00 0.00 78 1061.4
20260509112557 64 215 5.2 7.8 0.00 0.00 0.00 78 1061.2
20260509112054 63 214 7.8 9.6 0.00 0.00 0.00 78 1061.1
20260509111551 63 206 7.0 9.6 0.00 0.00 0.00 78 1061.0
20260509111048 63 203 7.0 8.7 0.00 0.00 0.00 77 1060.9
20260509110545 63 207 5.2 6.1 0.00 0.00 0.00 77 1060.9
20260509110042 63 216 7.0 8.7 0.00 0.00 0.00 78 1060.9
20260509105540 63 183 4.3 6.1 0.00 0.00 0.00 78 1060.8
20260509105038 63 199 6.1 9.6 0.00 0.00 0.00 78 1060.9
20260509104534 62 195 2.6 3.5 0.00 0.00 0.00 80 1060.8
20260509104031 62 180 3.5 5.2 0.00 0.00 0.00 80 1061.0
20260509103529 62 210 5.2 7.0 0.00 0.00 0.00 80 1060.7
20260509103027 63 196 6.1 7.8 0.00 0.00 0.00 79 1060.9
20260509102524 63 216 5.2 7.8 0.00 0.00 0.00 79 1060.7
20260509102021 63 215 7.0 7.8 0.00 0.00 0.00 78 1060.7
20260509101517 63 201 7.0 8.7 0.00 0.00 0.00 78 1060.7
20260509101014 63 217 5.2 6.1 0.00 0.00 0.00 78 1060.7
20260509100512 63 206 5.2 7.8 0.00 0.00 0.00 78 1060.6
20260509100009 63 215 6.1 7.0 0.00 0.00 0.00 78 1060.6
20260509095505 64 192 5.2 7.8 0.00 0.00 0.00 77 1060.7
20260509095002 64 190 3.5 5.2 0.00 0.00 0.00 77 1060.6
20260509094458 64 218 6.1 7.8 0.00 0.00 0.00 77 1060.6
20260509093956 64 220 5.2 7.8 0.00 0.00 0.00 77 1060.6
20260509093454 64 203 7.0 8.7 0.00 0.00 0.00 77 1060.8
20260509092951 63 212 5.2 7.8 0.00 0.00 0.00 78 1060.7
20260509092449 63 169 5.2 7.8 0.00 0.00 0.00 79 1060.6
20260509091948 63 189 5.2 7.8 0.00 0.00 0.00 80 1060.6
20260509091444 63 203 3.5 6.1 0.00 0.00 0.00 79 1060.6
20260509090941 63 211 5.2 7.8 0.00 0.00 0.00 79 1060.5
20260509090438 63 201 3.5 5.2 0.00 0.00 0.00 78 1060.6
20260509085936 63 209 4.3 7.0 0.00 0.00 0.00 78 1060.6
20260509085433 63 208 5.2 7.8 0.00 0.00 0.00 79 1060.7
20260509084929 63 183 5.2 7.8 0.00 0.00 0.00 80 1060.6
20260509084426 62 203 4.3 6.1 0.00 0.00 0.00 81 1060.4
20260509083924 62 206 5.2 8.7 0.00 0.00 0.00 81 1060.6
20260509083420 62 187 5.2 7.0 0.00 0.00 0.00 82 1060.8
20260509082917 62 188 3.5 3.5 0.00 0.00 0.00 82 1060.7
20260509082415 62 209 3.5 3.5 0.00 0.00 0.00 82 1060.7
20260509081911 62 205 4.3 6.1 0.00 0.00 0.00 83 1060.6
20260509081408 62 186 3.5 3.5 0.00 0.00 0.00 82 1060.9
20260509080906 62 192 2.6 3.5 0.00 0.00 0.00 82 1060.8
20260509080404 61 173 3.5 6.1 0.00 0.00 0.00 83 1060.8
20260509075902 61 191 2.6 3.5 0.00 0.00 0.00 83 1060.7
20260509075358 61 190 2.6 2.6 0.00 0.00 0.00 83 1060.7
20260509074856 61 186 2.6 2.6 0.00 0.00 0.00 82 1060.9
20260509074354 62 167 2.6 3.5 0.00 0.00 0.00 82 1061.0
20260509073849 62 186 2.6 2.6 0.00 0.00 0.00 81 1060.9
20260509073346 62 165 3.5 3.5 0.00 0.00 0.00 81 1060.9
20260509072843 62 162 3.5 3.5 0.00 0.00 0.00 81 1061.2
20260509072339 62 178 3.5 2.6 0.00 0.00 0.00 81 1061.1
20260509071836 62 187 2.6 2.6 0.00 0.00 0.00 80 1061.4
20260509071333 62 185 3.5 3.5 0.00 0.00 0.00 80 1061.4
20260509070830 62 167 3.5 3.5 0.00 0.00 0.00 80 1061.5
20260509070327 62 183 3.5 3.5 0.00 0.00 0.00 80 1061.6
20260509065823 62 175 2.6 2.6 0.00 0.00 0.00 79 1061.5
20260509065319 63 171 3.5 3.5 0.00 0.00 0.00 79 1061.6
20260509064815 63 171 3.5 3.5 0.00 0.00 0.00 78 1061.7
20260509064313 62 179 2.6 1.7 0.00 0.00 0.00 79 1062.0
20260509063810 62 182 4.3 5.2 0.00 0.00 0.00 80 1061.8
20260509063306 62 180 3.5 3.5 0.00 0.00 0.00 79 1062.2
20260509062804 62 175 3.5 3.5 0.00 0.00 0.00 79 1062.0
20260509062301 63 176 3.5 3.5 0.00 0.00 0.00 78 1061.7
20260509061758 63 173 3.5 3.5 0.00 0.00 0.00 78 1061.7
20260509061256 62 164 2.6 2.6 0.00 0.00 0.00 79 1062.0
20260509060753 62 176 3.5 3.5 0.00 0.00 0.00 79 1061.8
20260509060249 62 164 4.3 5.2 0.00 0.00 0.00 78 1061.8
20260509055745 63 173 4.3 5.2 0.00 0.00 0.00 78 1061.8
20260509055241 63 176 3.5 5.2 0.00 0.00 0.00 78 1061.7
20260509054738 63 170 3.5 3.5 0.00 0.00 0.00 76 1061.8
20260509054235 64 169 3.5 3.5 0.00 0.00 0.00 76 1062.0
20260509053733 64 162 3.5 3.5 0.00 0.00 0.00 75 1061.8
20260509053230 64 167 2.6 2.6 0.00 0.00 0.00 75 1062.4
20260509052728 64 174 2.6 2.6 0.00 0.00 0.00 76 1062.4
20260509052225 64 168 1.7 2.6 0.00 0.00 0.00 75 1062.5
20260509051723 64 146 2.6 2.6 0.00 0.00 0.00 75 1062.4
20260509051220 63 154 1.7 1.7 0.00 0.00 0.00 75 1062.6
20260509050717 63 173 1.7 2.6 0.00 0.00 0.00 75 1062.6
20260509050213 64 175 1.7 1.7 0.00 0.00 0.00 74 1062.6
20260509045711 64 178 1.7 1.7 0.00 0.00 0.00 74 1062.7
20260509045208 64 171 1.7 1.7 0.00 0.00 0.00 73 1062.8
20260509044705 64 176 1.7 1.7 0.00 0.00 0.00 73 1062.9
20260509044202 64 170 1.7 2.6 0.00 0.00 0.00 72 1063.2
20260509043658 64 160 0.9 0.9 0.00 0.00 0.00 71 1063.4
20260509043154 64 49 2.6 2.6 0.00 0.00 0.00 71 1063.6
20260509042651 64 57 2.6 2.6 0.00 0.00 0.00 71 1063.9
20260509042147 64 63 0.9 1.7 0.00 0.00 0.00 73 1063.6
20260509041644 64 172 0.0 0.0 0.00 0.00 0.00 73 1063.5
20260509041141 64 158 0.0 0.0 0.00 0.00 0.00 72 1063.3
20260509040640 64 47 2.6 2.6 0.00 0.00 0.00 72 1063.5
20260509040136 64 38 2.6 2.6 0.00 0.00 0.00 72 1063.4
20260509035633 64 69 1.7 1.7 0.00 0.00 0.00 72 1063.2
20260509035130 64 176 1.7 1.7 0.00 0.00 0.00 72 1063.1
20260509034628 64 186 0.0 0.9 0.00 0.00 0.00 72 1063.2
20260509034124 64 172 1.7 1.7 0.00 0.00 0.00 71 1063.0
20260509033621 64 174 1.7 1.7 0.00 0.00 0.00 71 1063.1
20260509033118 64 170 1.7 2.6 0.00 0.00 0.00 72 1063.3
20260509032616 65 173 2.6 1.7 0.00 0.00 0.00 71 1063.7
20260509032112 65 172 2.6 2.6 0.00 0.00 0.00 70 1063.3
20260509031610 65 176 0.9 0.9 0.00 0.00 0.00 69 1063.2
20260509031108 65 172 1.7 2.6 0.00 0.00 0.00 69 1063.0
20260509030605 65 170 2.6 2.6 0.00 0.00 0.00 69 1062.9
20260509025558 65 177 0.9 0.9 0.00 0.00 0.00 68 1062.9
20260509025054 65 171 1.7 1.7 0.00 0.00 0.00 68 1062.8
20260509024550 65 178 1.7 1.7 0.00 0.00 0.00 68 1062.6
20260509024046 65 173 1.7 1.7 0.00 0.00 0.00 68 1062.6
20260509023544 65 179 1.7 1.7 0.00 0.00 0.00 69 1062.5
20260509023040 64 183 0.0 0.0 0.00 0.00 0.00 69 1062.4
20260509022537 64 178 0.9 0.9 0.00 0.00 0.00 70 1062.2
20260509022035 64 175 1.7 1.7 0.00 0.00 0.00 70 1062.0
20260509021532 64 180 1.7 1.7 0.00 0.00 0.00 70 1061.6
20260509021029 64 171 2.6 2.6 0.00 0.00 0.00 71 1061.5
20260509020527 64 178 2.6 2.6 0.00 0.00 0.00 71 1061.2
20260509020023 64 169 2.6 2.6 0.00 0.00 0.00 72 1061.0
20260509015523 64 172 2.6 2.6 0.00 0.00 0.00 72 1061.0
20260509015019 64 174 2.6 2.6 0.00 0.00 0.00 73 1060.9
20260509014516 64 180 2.6 2.6 0.00 0.00 0.00 73 1060.9
20260509014013 64 176 2.6 2.6 0.00 0.00 0.00 73 1060.8
20260509013510 64 172 3.5 2.6 0.00 0.00 0.00 73 1060.7
20260509013005 64 170 3.5 2.6 0.00 0.00 0.00 73 1060.6
20260509012502 64 171 2.6 2.6 0.00 0.00 0.00 73 1060.5
20260509011958 64 173 2.6 3.5 0.00 0.00 0.00 72 1060.5